カタログに戻る

SL-12 DEB

LostHEO
NORAD 43380·DEBRIS·🇷🇺 Russia

打ち上げ Oct 26, 2007 から Baikonur Cosmodrome

Loading…

次のパス (今後24時間)

TLE

古いSource: Space-Track

元期: Jun 14, 2018, 14:27 UTC

1 43380U 07052AG  18165.60216509  .00000101  00000-0  00000+0 0  9993
2 43380  64.1164 240.4231 5820416  24.0557 354.4036  4.27262316 51472

AllMySatでSL-12 DEBをリアルタイム追跡

Download on the App Store